Location: Bruch
(44.2051°N, 0.4120°E)
Time: 19:47:36
(UTC+00:00)

Cosmos 1707 Rocket - Visible Passes

Search period start: 11 April 2021 00:00
Search period end: 21 April 2021 00:00
Orbit: 604 x 632 km, 82.5° (Epoch: 11 April)

Date Brightness Start Highest point End Pass type
(mag) Time Alt. Az. Time Alt. Az. Time Alt. Az.
11 Apr 6.4 01:09:43 12° ENE 01:09:43 12° ENE 01:10:33 10° NE visible
11 Apr 4.3 02:46:52 42° NNW 02:46:52 42° NNW 02:50:01 10° N visible
12 Apr 5.9 01:26:47 20° ENE 01:26:47 20° ENE 01:28:43 10° NE visible
12 Apr 4.8 03:03:55 27° NW 03:03:55 27° NW 03:06:47 10° NNW visible
13 Apr 5.3 01:43:49 29° NE 01:43:49 29° NE 01:46:16 10° NNE visible
13 Apr 5.4 03:20:58 17° WNW 03:20:58 17° WNW 03:23:10 10° NNW visible
14 Apr 4.9 02:00:51 37° NNE 02:00:51 37° NNE 02:03:31 10° N visible
15 Apr 6.5 00:40:44 11° ENE 00:40:44 11° ENE 00:41:09 10° NE visible
15 Apr 4.8 02:17:52 33° NNW 02:17:52 33° NNW 02:20:32 10° N visible
16 Apr 6.0 00:57:44 18° NE 00:57:44 18° NE 00:59:16 10° NE visible
16 Apr 5.1 02:34:52 24° NW 02:34:52 24° NW 02:37:17 10° NNW visible
17 Apr 5.6 01:14:43 26° NE 01:14:43 26° NE 01:16:48 10° NNE visible
17 Apr 5.6 02:51:51 16° NW 02:51:51 16° NW 02:53:39 10° NNW visible
18 Apr 5.2 01:31:42 31° NNE 01:31:42 31° NNE 01:34:02 10° N visible
19 Apr 6.5 00:11:32 11° NE 00:11:32 11° NE 00:11:44 10° NE visible
19 Apr 5.1 01:48:40 30° NNW 01:48:40 30° NNW 01:51:02 10° N visible
20 Apr 6.1 00:28:29 17° NE 00:28:29 17° NE 00:29:49 10° NNE visible
20 Apr 5.4 02:05:37 22° NW 02:05:37 22° NW 02:07:47 10° NNW visible
